Location: Champseau
(45.8333°N, 1.7667°E)
Time: 05:52:03
(UTC+00:00)

H-2A R/B - Pass Details

Date: 18 April 2021
Orbit: 733 x 837 km, 98.2° (Epoch: 15 May)

Event Time Altitude Azimuth Distance (km) Brightness Sun altitude
Rises 19:07:32 0° 189° (S) 3,221 5.1 -4.7°
Reaches altitude 10° 19:10:02 10° 198° (SSW) 2,284 4.4 -5.1°
Maximum altitude 19:14:35 34° 264° (W) 1,213 3.8 -5.9°
Drops below altitude 10° 19:19:06 10° 329° (NNW) 2,257 5.4 -6.6°
Sets 19:21:34 0° 339° (NNW) 3,178 6.0 -7.0°
